カタログに戻る

EXPLORER 35

AIMP-E

運用中科学LEO
NORAD 2884·PAYLOAD·🇺🇸 United States

打ち上げ Jul 19, 1967 から Cape Canaveral Space Force Station

Loading…

次のパス (今後24時間)

TLE

古いSource: Space-Track

元期: Mar 3, 1969, 11:06 UTC

1 02884U 67070  A 69062.46257656  .00014437 +00000-0 +00000-0 0  9995
2 02884 032.4564 090.2825 0136973 039.3155 321.7298 14.95777010167770

AllMySatでEXPLORER 35をリアルタイム追跡

Download on the App Store